Location: Oshawa
(43.9000°N, 78.8670°W)
Time: 07:13:44
(UTC-04:00)

Altair - Visible Passes

Search period start: 01 September 2014 00:00
Search period end: 11 September 2014 00:00
Orbit: 1502 x 1682 km, 47.2° (Epoch: 30 August)

Date Brightness Start Highest point End Pass type
(mag) Time Alt. Az. Time Alt. Az. Time Alt. Az.
01 Sep 8.4 01:37:11 10° WNW 01:41:35 31° W 01:41:35 31° W visible
01 Sep 7.6 21:01:29 10° W 21:11:09 79° NNW 21:20:29 10° ENE visible
01 Sep 7.4 23:06:59 10° WNW 23:16:28 78° NNE 23:19:17 50° E visible
02 Sep 8.2 01:12:00 10° WNW 01:17:16 37° W 01:17:16 37° W visible
02 Sep 7.6 20:36:16 10° WSW 20:45:59 81° NNW 20:55:21 10° ENE visible
02 Sep 7.5 22:41:47 10° WNW 22:51:18 76° N 22:55:00 42° E visible
03 Sep 8.0 00:46:50 10° WNW 00:52:59 45° W 00:52:59 45° W visible
03 Sep 7.7 20:11:03 10° WSW 20:20:49 83° NNW 20:30:12 10° ENE visible
03 Sep 7.5 22:16:34 10° WNW 22:26:07 75° N 22:30:45 34° E visible
04 Sep 7.7 00:21:40 10° WNW 00:28:44 54° W 00:28:44 54° W visible
04 Sep 7.5 21:51:22 10° W 22:00:56 74° N 22:06:33 28° E visible
04 Sep 7.5 23:56:30 10° WNW 00:04:32 64° WSW 00:04:32 64° WSW visible
05 Sep 9.4 02:02:09 10° W 02:02:31 11° W 02:02:31 11° W visible
05 Sep 7.6 21:26:08 10° W 21:35:45 73° N 21:42:22 22° E visible
05 Sep 7.3 23:31:19 10° WNW 23:40:22 75° SW 23:40:22 75° SW visible
06 Sep 9.2 01:36:50 10° WNW 01:38:21 15° W 01:38:21 15° W visible
06 Sep 7.6 21:00:55 10° W 21:10:34 73° N 21:18:14 17° E visible
06 Sep 7.2 23:06:09 10° WNW 23:15:36 79° SSW 23:16:13 76° SSE visible
07 Sep 9.0 01:11:32 10° WNW 01:14:13 19° W 01:14:13 19° W visible
07 Sep 7.7 20:35:41 10° W 20:45:22 73° N 20:54:07 12° E visible
07 Sep 7.3 22:40:58 10° WNW 22:50:29 83° SSW 22:52:06 65° SE visible
08 Sep 8.8 00:46:16 10° WNW 00:50:06 24° W 00:50:06 24° W visible
08 Sep 7.7 20:10:27 10° W 20:20:11 73° N 20:29:32 10° E visible
08 Sep 7.3 22:15:47 10° WNW 22:25:21 86° SSW 22:28:02 53° ESE visible
09 Sep 8.5 00:21:01 10° WNW 00:26:01 29° W 00:26:01 29° W visible
09 Sep 7.4 21:50:36 10° WNW 22:00:13 89° SSW 22:03:59 42° ESE visible
09 Sep 8.3 23:55:47 10° WNW 00:01:58 35° WSW 00:01:58 35° WSW visible
10 Sep 7.4 21:25:24 10° WNW 21:35:04 88° NNE 21:39:58 33° ESE visible
10 Sep 8.0 23:30:33 10° WNW 23:37:58 41° WSW 23:37:58 41° WSW visible
